FW4383 Weather Reports


time (UTC)temp
C
wind
direction
speed
KPH
gust
KPH
rain 1hr
cm
rain 24hr
cm
rain mn
cm
humidity
%
barometer
mb
20260505161538 15 265 14.5 32.2 0.00 0.00 0.00 73 1016.3
20260505151537 14 247 11.3 22.5 0.00 0.00 0.00 77 1016.3
20260505124535 13 256 8.0 24.1 0.00 0.00 0.00 81 1015.4
20260505123031 13 259 8.0 17.7 0.00 0.00 0.00 80 1015.3
20260505121534 13 265 11.3 25.7 0.00 0.00 0.00 80 1015.2
20260505114534 13 258 11.3 19.3 0.00 0.00 0.00 79 1015.0
20260505113035 13 256 11.3 24.1 0.00 0.00 0.00 79 1015.0
20260505111536 14 256 12.9 25.7 0.00 0.00 0.00 78 1014.9
20260505101534 14 257 14.5 29.0 0.00 0.00 0.00 77 1014.4
20260505100044 15 251 9.7 22.5 0.00 0.00 0.00 76 1014.4
20260505094530 15 256 9.7 22.5 0.00 0.00 0.00 76 1014.2
20260505093031 15 253 12.9 27.4 0.00 0.00 0.00 75 1014.1
20260505091535 15 245 11.3 29.0 0.00 0.00 0.00 74 1014.0
20260505090036 16 238 11.3 27.4 0.00 0.00 0.00 73 1013.8
20260505084534 16 244 11.3 25.7 0.00 0.00 0.00 73 1013.7
20260505083110 16 244 12.9 24.1 0.00 0.00 0.00 73 1013.7
20260505081536 17 249 9.7 20.9 0.00 0.00 0.00 73 1013.5
20260505080036 17 252 11.3 22.5 0.00 0.00 0.00 73 1013.4
20260505074533 17 250 14.5 27.4 0.00 0.00 0.00 72 1013.3
20260505073033 17 251 11.3 22.5 0.00 0.00 0.00 72 1013.2
20260505071537 18 251 9.7 20.9 0.00 0.00 0.00 70 1013.1
20260505070034 18 254 12.9 27.4 0.00 0.00 0.00 69 1012.9
20260505063030 18 251 11.3 24.1 0.00 0.00 0.00 67 1012.6
20260505060031 19 248 8.0 25.7 0.00 0.00 0.00 64 1012.5
20260505053033 19 258 6.4 22.5 0.00 0.00 0.00 62 1012.4
20260505041536 20 256 9.7 27.4 0.00 0.00 0.00 56 1011.6
20260505040049 20 249 8.0 25.7 0.00 0.00 0.00 56 1011.5
20260505034534 21 259 6.4 17.7 0.00 0.00 0.00 54 1011.2
20260505033145 21 258 11.3 24.1 0.00 0.00 0.00 54 1010.9
20260505024609 22 251 9.7 22.5 0.00 0.00 0.00 53 1010.4
20260505020036 23 248 6.4 24.1 0.00 0.00 0.00 50 1010.2
20260505013032 23 242 9.7 24.1 0.00 0.00 0.00 51 1010.0
20260505011536 23 249 12.9 27.4 0.00 0.00 0.00 50 1010.0
20260505004535 23 261 14.5 32.2 0.00 0.00 0.00 49 1010.0
20260505003111 23 270 16.1 32.2 0.00 0.00 0.00 48 1009.9
20260505001532 23 271 16.1 33.8 0.00 0.00 0.00 47 1009.8
20260505000034 24 271 16.1 38.6 0.00 0.00 0.00 47 1009.8
20260504234534 24 273 14.5 29.0 0.00 0.00 0.00 47 1009.7
20260504233034 24 277 14.5 29.0 0.00 0.00 0.00 47 1009.6
20260504231535 24 271 16.1 35.4 0.00 0.00 0.00 47 1009.7
20260504224536 24 272 16.1 37.0 0.00 0.00 0.00 47 1010.0
20260504223031 24 274 16.1 33.8 0.00 0.00 0.00 47 1010.2
20260504221536 24 275 17.7 32.2 0.00 0.00 0.00 48 1010.3
20260504220033 24 274 14.5 32.2 0.00 0.00 0.00 47 1010.3
20260504213031 25 271 12.9 29.0 0.00 0.00 0.00 46 1010.7
20260504211532 24 279 16.1 32.2 0.00 0.00 0.00 47 1010.8
20260504210110 24 276 12.9 35.4 0.00 0.00 0.00 47 1010.9
20260504204532 23 269 12.9 25.7 0.00 0.00 0.00 47 1011.2
20260504203033 24 267 12.9 27.4 0.00 0.00 0.00 46 1011.3
20260504201534 24 263 9.7 22.5 0.00 0.00 0.00 46 1011.4
20260504200036 24 279 6.4 17.7 0.00 0.00 0.00 46 1011.6
20260504194534 24 253 6.4 25.7 0.00 0.00 0.00 46 1011.7
20260504193111 23 271 4.8 14.5 0.00 0.00 0.00 49 1011.9
20260504191608 23 260 4.8 14.5 0.00 0.00 0.00 49 1012.0
20260504190031 22 230 4.8 16.1 0.00 0.00 0.00 51 1012.2
20260504184537 22 237 6.4 24.1 0.00 0.00 0.00 51 1012.2
20260504183036 21 235 9.7 20.9 0.00 0.00 0.00 52 1012.3
20260504181535 21 243 12.9 25.7 0.00 0.00 0.00 54 1012.4
20260504180030 20 253 14.5 29.0 0.00 0.00 0.00 55 1012.5
20260504174530 20 266 16.1 30.6 0.00 0.00 0.00 56 1012.5
20260504173031 20 270 19.3 35.4 0.00 0.00 0.00 56 1012.5
20260504171535 20 279 14.5 29.0 0.00 0.00 0.00 57 1012.5